sat.trackr.live / text

‹ back to catalog

STARLINK-3893

NORAD 52579 · 2022-051AV

PAYLOAD ACTIVE UNKNOWN

§ Identity

Operator
Country
US
Launch date
2022-05-13
Launch site
AFWTR
Launch vehicle
Mass (kg)
RCS (m²)

Purposes: comms

External: N2YO · Heavens-Above · Gunter

§ Orbital elements

Epoch: 2026-09-18T14:19:29.019360Z

Period
87.38 min
Inclination
53.2038°
Eccentricity
0.0007920
Mean motion
16.47920096 rev/d
Perigee alt
139.7 km
Apogee alt
150.0 km
Semi-major
6,523.0 km
B*
1.8402e-4
RAAN
299.9926°
Arg perigee
226.6690°
Mean anomaly
133.3703°
Rev number
24,116

§ Raw data

STARLINK-38931 52579U 22051AV  26261.59686365  .11876742  12476-4  18402-3 0  99912 52579  53.2038 299.9926 0007920 226.6690 133.3703 16.47920096241164

JSON: /api/v1/satellites/52579 · /tle

For live sub-satellite position, see the globe view (requires WebGL).

§ Visibility from observer

Set your observer location to see the next 7 days of passes ≥ 10°. The values pass through the URL so the page stays shareable.

No JS? Fill the form by hand. The geolocation button needs JavaScript.